• en France
  • Liste des pays
  • À 7 jours
  • Température de l'eau
  • Carte satellitaire
  • Carte météo
  • Widgets météo
  • user-avatar
    Se connecter

    Météo par heure à Marfinka

    Ce jour, 20 Mai, Dimanche

    Heure Température Précipitation Vent Pression Humidité
    00:00 +13°C° 0 mm 2 m/s 747 mmHg 95%
    01:00 +13°C° 0 mm 2 m/s 747 mmHg 96%
    02:00 +13°C° 0 mm 2 m/s 747 mmHg 96%
    03:00 +12°C° 0 mm 2 m/s 747 mmHg 97%
    04:00 +13°C° 0 mm 2 m/s 748 mmHg 96%
    05:00 +13°C° 0 mm 2 m/s 748 mmHg 95%
    06:00 +13°C° 0 mm 2 m/s 749 mmHg 94%
    07:00 +15°C° 0 mm 2 m/s 749 mmHg 89%
    08:00 +16°C° 0 mm 2 m/s 750 mmHg 84%
    09:00 +17°C° 0 mm 2 m/s 750 mmHg 78%
    10:00 +18°C° 0,1 mm 2 m/s 750 mmHg 75%
    11:00 +19°C° 0,1 mm 2 m/s 750 mmHg 71%
    12:00 +19°C° 0,1 mm 2 m/s 750 mmHg 68%
    13:00 +20°C° 0,3 mm 2 m/s 751 mmHg 67%
    14:00 +20°C° 0,3 mm 3 m/s 751 mmHg 67%
    15:00 +20°C° 0,3 mm 3 m/s 751 mmHg 66%
    16:00 +20°C° 0,3 mm 3 m/s 751 mmHg 69%
    17:00 +19°C° 0,3 mm 3 m/s 751 mmHg 72%
    18:00 +19°C° 0,3 mm 3 m/s 751 mmHg 76%
    19:00 +17°C° 0,1 mm 4 m/s 752 mmHg 78%
    20:00 +15°C° 0,1 mm 4 m/s 752 mmHg 80%
    21:00 +14°C° 0,1 mm 4 m/s 753 mmHg 82%
    22:00 +13°C° 0 mm 4 m/s 753 mmHg 81%
    23:00 +12°C° 0 mm 5 m/s 753 mmHg 81%

    Demain, 21 Mai, Lundi

    Heure Température Précipitation Vent Pression Humidité
    00:00 +12°C° 0 mm 5 m/s 754 mmHg 81%
    01:00 +10°C° 0 mm 5 m/s 754 mmHg 82%
    02:00 +11°C° 0 mm 4 m/s 754 mmHg 82%
    03:00 +10°C° 0 mm 4 m/s 755 mmHg 83%
    04:00 +9°C° 0 mm 5 m/s 755 mmHg 82%
    05:00 +9°C° 0 mm 5 m/s 755 mmHg 80%
    06:00 +9°C° 0 mm 5 m/s 756 mmHg 78%
    07:00 +9°C° 0,1 mm 6 m/s 756 mmHg 75%
    08:00 +10°C° 0,1 mm 6 m/s 756 mmHg 71%
    09:00 +11°C° 0,1 mm 7 m/s 757 mmHg 68%
    10:00 +13°C° 0,3 mm 6 m/s 757 mmHg 67%
    11:00 +14°C° 0,3 mm 6 m/s 757 mmHg 66%
    12:00 +15°C° 0,3 mm 6 m/s 757 mmHg 65%
    13:00 +15°C° 0,2 mm 6 m/s 757 mmHg 65%
    14:00 +16°C° 0,2 mm 5 m/s 757 mmHg 65%
    15:00 +16°C° 0,2 mm 5 m/s 757 mmHg 65%
    16:00 +16°C° 0 mm 5 m/s 757 mmHg 66%
    17:00 +16°C° 0 mm 5 m/s 757 mmHg 68%
    18:00 +17°C° 0 mm 4 m/s 757 mmHg 70%
    19:00 +15°C° 0 mm 4 m/s 757 mmHg 71%
    20:00 +14°C° 0 mm 5 m/s 758 mmHg 72%
    21:00 +14°C° 0 mm 5 m/s 758 mmHg 73%
    22:00 +13°C° 0 mm 5 m/s 758 mmHg 74%
    23:00 +13°C° 0 mm 5 m/s 758 mmHg 74%

    Après-demain, 22 Mai, Mardi

    Heure Température Précipitation Vent Pression Humidité
    00:00 +12°C° 0 mm 5 m/s 758 mmHg 74%
    01:00 +12°C° 0 mm 5 m/s 759 mmHg 75%
    02:00 +10°C° 0 mm 5 m/s 759 mmHg 75%
    03:00 +11°C° 0 mm 4 m/s 759 mmHg 76%
    04:00 +10°C° 0 mm 5 m/s 759 mmHg 76%
    05:00 +10°C° 0 mm 5 m/s 759 mmHg 77%
    06:00 +10°C° 0 mm 5 m/s 759 mmHg 78%
    07:00 +13°C° 0 mm 5 m/s 760 mmHg 74%
    08:00 +14°C° 0 mm 5 m/s 760 mmHg 71%
    09:00 +16°C° 0 mm 6 m/s 760 mmHg 67%
    10:00 +17°C° 0 mm 6 m/s 760 mmHg 65%
    11:00 +19°C° 0 mm 6 m/s 759 mmHg 63%
    12:00 +21°C° 0 mm 6 m/s 759 mmHg 61%
    13:00 +21°C° 0 mm 6 m/s 759 mmHg 61%
    14:00 +22°C° 0 mm 6 m/s 759 mmHg 61%
    15:00 +23°C° 0 mm 5 m/s 759 mmHg 61%
    16:00 +23°C° 0 mm 5 m/s 758 mmHg 64%
    17:00 +23°C° 0 mm 4 m/s 758 mmHg 67%
    18:00 +22°C° 0 mm 4 m/s 758 mmHg 71%
    19:00 +21°C° 0 mm 4 m/s 758 mmHg 75%
    20:00 +20°C° 0 mm 3 m/s 758 mmHg 80%
    21:00 +18°C° 0 mm 3 m/s 758 mmHg 84%
    22:00 +18°C° 0,3 mm 3 m/s 758 mmHg 85%
    23:00 +17°C° 0,3 mm 3 m/s 758 mmHg 86%

    23 Mai, Mercredi

    Heure Température Précipitation Vent Pression Humidité
    00:00 +17°C° 0,3 mm 3 m/s 758 mmHg 87%
    01:00 +16°C° 0,2 mm 3 m/s 758 mmHg 87%
    02:00 +16°C° 0,2 mm 3 m/s 758 mmHg 87%
    03:00 +14°C° 0,2 mm 3 m/s 758 mmHg 87%
    04:00 +16°C° 0 mm 3 m/s 758 mmHg 86%
    05:00 +16°C° 0 mm 3 m/s 758 mmHg 85%
    06:00 +16°C° 0 mm 3 m/s 758 mmHg 83%
    07:00 +17°C° 0 mm 3 m/s 758 mmHg 80%
    08:00 +18°C° 0 mm 3 m/s 758 mmHg 77%
    09:00 +19°C° 0 mm 3 m/s 758 mmHg 74%
    10:00 +20°C° 0 mm 3 m/s 758 mmHg 71%
    11:00 +21°C° 0 mm 4 m/s 757 mmHg 67%
    12:00 +22°C° 0 mm 4 m/s 757 mmHg 63%
    13:00 +22°C° 0 mm 4 m/s 757 mmHg 63%
    14:00 +23°C° 0 mm 4 m/s 756 mmHg 62%
    15:00 +23°C° 0 mm 4 m/s 756 mmHg 61%
    16:00 +23°C° 0 mm 4 m/s 756 mmHg 63%
    17:00 +24°C° 0 mm 3 m/s 755 mmHg 66%
    18:00 +24°C° 0 mm 3 m/s 755 mmHg 68%
    19:00 +21°C° 0 mm 2 m/s 755 mmHg 74%
    20:00 +20°C° 0 mm 2 m/s 755 mmHg 80%
    21:00 +18°C° 0 mm 2 m/s 754 mmHg 86%
    22:00 +18°C° 0 mm 2 m/s 754 mmHg 88%
    23:00 +18°C° 0 mm 1 m/s 754 mmHg 90%

    24 Mai, Jeudi

    Heure Température Précipitation Vent Pression Humidité
    00:00 +18°C° 0 mm 1 m/s 754 mmHg 91%
    01:00 +18°C° 0,1 mm 1 m/s 754 mmHg 92%
    02:00 +18°C° 0,1 mm 1 m/s 753 mmHg 93%
    03:00 +16°C° 0,1 mm 1 m/s 753 mmHg 94%
    04:00 +18°C° 0,5 mm 1 m/s 753 mmHg 93%
    05:00 +18°C° 0,5 mm 1 m/s 753 mmHg 92%
    06:00 +19°C° 0,5 mm 1 m/s 753 mmHg 92%
    07:00 +20°C° 0,6 mm 1 m/s 753 mmHg 89%
    08:00 +21°C° 0,6 mm 1 m/s 753 mmHg 85%
    09:00 +22°C° 0,6 mm 1 m/s 753 mmHg 82%
    10:00 +23°C° 0,7 mm 2 m/s 753 mmHg 79%
    11:00 +23°C° 0,7 mm 2 m/s 753 mmHg 76%
    12:00 +24°C° 0,7 mm 2 m/s 753 mmHg 72%
    13:00 +24°C° 0,6 mm 2 m/s 752 mmHg 73%
    14:00 +24°C° 0,6 mm 2 m/s 752 mmHg 73%
    15:00 +24°C° 0,6 mm 2 m/s 752 mmHg 73%
    16:00 +24°C° 0,5 mm 2 m/s 752 mmHg 76%
    17:00 +23°C° 0,5 mm 2 m/s 752 mmHg 78%
    18:00 +23°C° 0,5 mm 1 m/s 752 mmHg 81%
    19:00 +22°C° 0,6 mm 1 m/s 752 mmHg 83%
    20:00 +20°C° 0,6 mm 1 m/s 752 mmHg 85%
    21:00 +19°C° 0,6 mm 1 m/s 752 mmHg 87%
    22:00 +18°C° 0 mm 2 m/s 753 mmHg 89%
    23:00 +17°C° 0 mm 2 m/s 753 mmHg 91%

    25 Mai, Vendredi

    Heure Température Précipitation Vent Pression Humidité
    00:00 +16°C° 0 mm 3 m/s 753 mmHg 93%
    01:00 +15°C° 0,1 mm 4 m/s 753 mmHg 94%
    02:00 +15°C° 0,1 mm 4 m/s 754 mmHg 94%
    03:00 +14°C° 0,1 mm 5 m/s 754 mmHg 95%
    04:00 +14°C° 0,3 mm 6 m/s 754 mmHg 94%
    05:00 +13°C° 0,3 mm 6 m/s 755 mmHg 93%
    06:00 +12°C° 0,3 mm 7 m/s 755 mmHg 92%
    07:00 +11°C° 0 mm 7 m/s 756 mmHg 90%
    08:00 +11°C° 0 mm 7 m/s 757 mmHg 89%
    09:00 +10°C° 0 mm 7 m/s 757 mmHg 87%
    10:00 +11°C° 0 mm 7 m/s 758 mmHg 83%
    11:00 +12°C° 0 mm 7 m/s 758 mmHg 78%
    12:00 +14°C° 0 mm 6 m/s 758 mmHg 74%
    13:00 +15°C° 0 mm 6 m/s 758 mmHg 70%
    14:00 +16°C° 0 mm 6 m/s 759 mmHg 66%
    15:00 +17°C° 0 mm 6 m/s 759 mmHg 63%
    16:00 +16°C° 0 mm 6 m/s 759 mmHg 63%
    17:00 +16°C° 0 mm 6 m/s 759 mmHg 64%
    18:00 +15°C° 0 mm 5 m/s 759 mmHg 64%
    19:00 +14°C° 0 mm 5 m/s 760 mmHg 66%
    20:00 +12°C° 0 mm 4 m/s 760 mmHg 68%
    21:00 +11°C° 0 mm 4 m/s 761 mmHg 69%
    22:00 +10°C° 0 mm 4 m/s 761 mmHg 71%
    23:00 +9°C° 0 mm 3 m/s 762 mmHg 73%
    Voir plus